User: anonymous   Login
Location: Unspecified
(0.0000°N, 0.0000°E)
Time: 23:02:09
(UTC+00:00)
Language:

TIME FLIES - Orbit

View from above orbital plane
View from above orbital plane
View from above satellite
View from above satellite

Ground track
Ground track

The orbit is defined by the following mean orbital elements,

1 64564U          26145.56472948 +.00000000 +00000-0 +24297-3 0 00008
2 64564  97.7683 260.2413 0002013  30.5297 329.6040 14.94776882    07
Epoch (UTC): 25 May 2026 13:33:12
Eccentricity: 0.0002013
inclination: 97.7683°
perigee height: 582 km
apogee height: 584 km
right ascension of ascending node: 260.2413°
argument of perigee: 30.5297°
revolutions per day: 14.94776882
mean anomaly at epoch: 329.6040°

The dashed part of the orbit path shows where the satellite is in the earth's shadow,  

DLR